Погода в Здвинске

Погода в Здвинске : погода сейчас, прогноз погоды и архив. Всё, что Вы хотите узнать о погоде в Здвинске!

Хотите узнать прогноз погоды в Здвинске? Тогда Вам сюда: Погода в Здвинске

Поиск расширенной информации на нашем сайте:

Полезная информация: трубы 25 мм хром

Другие новости

Новости СМИ2

Главная страница сайта

Новости сайта

03.07.2017

Напоминаем, что на нашем специализированном сайте Метеоцентр.Азия вы можете получить высокодетализированные автоматические прогнозы погоды по пунктам России, СНГ и мира в авиационном формате (включающие направление и скорость ветра, видимость, явления погоды, количество и форму облачности, нижнюю и верхнюю границу облачности).

Рекомендуем: Стойка для печатной продукции

Погода в Здвинске - сегодня

Время (UTC), дата Ветер
(°,м/с) 
Видим.   Явления Облачность Т
(°С)
Тd
(°С)
f(%) Тe
(°С)
Pmin
(гПа)
dP
(гПа)
Po
(мм)
O2
(г/м3)
Тmin Tmax R s Состояние
почвы
09 20.09.17 260 (З) 20000 м    10/4 600 м кучево-дожд., средняя 
[Cb cap|Ac und]
+9.9 +3.5 64 +10  1021.4  -0.5  756  293           
12 20.09.17 140 (ЮВ) 20000 м  {ливн. осадки}  10/3 600 м кучево-дожд., средняя 
[Cb cap|Ac und]
+8.9 +5 77 +8  1018.1  -3.3  753  293    +11  0.0     
15 20.09.17 140 (ЮВ) 20000 м  {ливн. осадки}  10/3 600 м кучево-дожд., средняя 
[Cb cap|Ac und]
+8.7 +6.2 84 +8  1015.2  -2.8  751  292           
18 20.09.17 150 (ЮВ) 20000 м  {ливн. осадки}  ясно 
+8.2 +7 92 +8  1011.2  -4  748  291           
21 20.09.17 160 (Ю) 20000 м    ясно 
+7 +6.1 94 +8  1008.8  -2.4  746  292           
00 21.09.17 260 (З) 20000 м  в посл. час ливневой дождь  10/6 600 м кучево-дожд., средняя 
[Cb cap|Ac und]
+7.8 +7.2 96 +8  1007.5  -1.2  745  291  +6.4      влажная 
03 21.09.17 260 (З) 4000 м  дымка  8/8 600 м 
[Sc]
+9.9 +9.3 96 +9  1006.9  -0.5  745  288           
06 21.09.17 280 (З) 5-11{11}  20000 м    10/10 600 м кучево-дожд. 
[Cb cap]
+12 +9.5 85 +12  1007.3  0.4  745  286           
09 21.09.17 280 (З) 5{11}  20000 м    10/10 600 м кучево-дожд. 
[Cb cap]
+11.8 +7.9 77 +11  1008  0.7  746  287           
12 21.09.17 310 (СЗ) 4{10}  20000 м  {ливн. осадки}  10/10 600 м кучево-дожд. 
[Cb cap]
+8.5 +5.8 83 +7  1010.4  2.2  748  291    +12.6  0.0     
15 21.09.17 310 (СЗ) 20000 м    10/6 600 м кучево-дожд., средняя 
[Cb cap|Ac und]
+7.7 +4.8 82 +7  1011.6  1.2  748  293           
18 21.09.17 320 (СЗ) 20000 м    8/3 600 м кучево-дожд., средняя 
[Cb cap|Ac As]
+7.2 +5.4 88 +6  1012.2  0.5  749  293           
21 21.09.17 310 (СЗ) 20000 м    10/4 600 м кучево-дожд., средняя 
[Cb cap|Ac und]
+6.9 +5.4 90 +6  1013.3  1.1  750  294           
00 22.09.17 310 (СЗ) 20000 м  {ливн. осадки}  8/8 600 м кучево-дожд. 
[Cb cap]
+5.5 +3.4 86 +4  1014.3  0.9  750  296  +5.5    0.0    сухая 
03 22.09.17 310 (СЗ) 20000 м    10/10 300 м кучево-дожд. 
[Cb cap]
+5.7 +3.4 85 +5  1015.5  1.1  751  296  +4.9         
06 22.09.17 310 (СЗ) 20000 м    10/10 600 м кучево-дожд. 
[Cb cap]
+7.8 +1.9 66 +7  1015.8  0.5  752  294           
12 22.09.17 290 (З) 10 км  слаб. ливневой дождь  10/10 600 м кучево-дожд. 
[Cb cap]
+6.3 +1.8 73 +5  1016.2  0.6  752  296    +9.3  0.0     
15 22.09.17 300 (СЗ) 20000 м  {ливн. осадки}  10/5 600 м кучево-дожд., средняя 
[Cb cap|Ac und]
+4.8 +1.7 80 +4  1016.5  0.2  752  297           
18 22.09.17 340 (С) 10 км  слаб. ливневой дождь  10/10 600 м кучево-дожд. 
[Cb cap]
+3.8 +1.6 86 +3  1016.4  -0.1  752  299           
21 22.09.17 320 (СЗ) 20000 м  {ливн. осадки}  10/10 600 м кучево-дожд. 
[Cb cap]
+2.2 +0.5 88 1016.5  752  300           
00 23.09.17 340 (С) 20000 м  {ливн. осадки}  10/10 600 м кучево-дожд. 
[Cb cap]
+0.8 -0.6 90 -2  1017.2  0.6  752  302  +0.8      влажная 
03 23.09.17 350 (С) 20000 м    10/10 600 м кучево-дожд. 
[Cb cap]
+0.8 -2.6 78 -2  1017.9  0.7  753  303  +0.3         
06 23.09.17 330 (СЗ) 20000 м    10/10 600 м кучево-дожд. 
[Cb cap]
+2 -1.9 75 1017.7  0.1  753  301           
09 23.09.17 350 (С) 3{10}  20000 м  {снег}  10/6 600 м кучево-дожд., средняя 
[Cb cap|Ac As]
+1.4 -1.3 82 1018.3  0.6  753  302           
12 23.09.17 320 (СЗ) 5{10}  10 км  слаб. снег  10/0 средняя 
[As op]
+0.5 -0.9 90 -2  1019.9  1.4  754  303    +2.7  0.9     
Время (UTC), дата Ветер
(°,м/с) 
Видим.   Явления Облачность Т
(°С)
Тd
(°С)
f(%) Тe
(°С)
Pmin
(гПа)
dP
(гПа)
Po
(мм)
O2
(г/м3)
Тmin Tmax R s Состояние
почвы

Для получения пояснительной информации подведите курсор к названию столбца.

ПОГОДА в Здвинске - архив

Всё, что Вы хотите узнать о погоде в Здвинске - удобно и подробно!

Выберите нужную дату (начиная с 1 января 2015* года) и нажмите кнопку "Найти".
Будут отображены архивные сводки погоды по пункту Здвинск, начиная с указанной даты.


Отображать данные в формате CSV (для использования в таблицах Excel)


Внимание! Наш архив погоды предназначен исключительно для личного некоммерческого использования в познавательных целях. Если Вам необходимы официальные справки о состоянии погоды (для производственных, юридических, коммерческих и т.п. целей), обращайтесь в органы Росгидромета.

*Примечание: данная дата относится к архиву по метеостанциям СССР (Россия, СНГ, Балтия).
Архив по метеостанциям Зарубежной Европы и Азии (кроме Китая) хранится 10 дней, по другим регионам земного шара (Китай, Африка, Америка, Австралия, Океания) - 1 день.

Здвинск - район местоположения метеостанции


Название, широта, долгота, высота метеостанции:
Здвинск 54.7°ш. 78.7°д. 113 м над ур. моря [Российская Федерация]

Дополнительная информация

В oтличие oт бoльшинства пoгoдных сайтoв мы публикуем пoдрoбную метеoинфoрмацию в детальнoм прoфессиoнальнoм фoрмате.

Характеристики температуры и влажнoсти вoздуха измеряются на высoте 2 м в тени вдали oт зданий и деревьев.
Скoрoсть ветра измеряется на высoте 10 м (на урoвне рoста челoвека скoрoсть ветра ниже в 1.5-2 раза). Если метеoстанция нахoдится в гoрoде или в лесу, тo скoрoсть ветра занижена на 2-4 м/с пo сравнению с oткрытым местoм. Скoрoсть ветра над акватoриями крупных рек и oзёр, а также на вершинах хoлмoв на 2-5 м/с выше, чем в oбычных услoвиях.
Атмoсфернoе давление в разных тoчках местнoсти мoжет значительнo oтличаться oт давления на метеoстанции, в зависимoсти oт услoвий рельефа (при пoдъёме на 10 м давление пoнижается примернo на 1 мм рт.ст.).